STARLINK-35294

Last updated on Mon Oct 20 2025 00:02:06 GMT+0000 (Coordinated Universal Time)

1 65755U 25216X 25292.23283242 .00159003 00000+0 28039-2 0 9991 2 65755 53.1586 272.2308 0001673 81.3587 278.7612 15.49361865 4859
UTC large
Height (km)
Speed (km/s)
/
Latitude / Longitude
Inclination (degrees)
Orbital Period (minutes)
Azimuth
Elevation
Range (km)
Doppler Factor

Next 0 passes for location: London (51.5072 / 0.1276)

Sorry there are no passes over London.